Location: El Manguito
(10.2358°N, 67.3634°W)
Time: 15:48:09
(UTC+00:00)

Meteor 1-27 Rocket - Pass Details

Date: 10 September 2024
Orbit: 830 x 908 km, 81.3° (Epoch: 14 October)

Event Time Altitude Azimuth Distance (km) Brightness Sun altitude
Rises 23:11:04 0° 357° (N) 3,398 7.0 -10.2°
Reaches altitude 10° 23:13:28 10° 358° (N) 2,473 6.2 -10.8°
Maximum altitude 23:19:04 78° 84° (E) 883 3.7 -12.2°
Drops below altitude 10° 23:24:49 10° 171° (S) 2,528 6.0 -13.6°
Sets 23:27:17 0° 172° (S) 3,478 6.7 -14.2°
